Temp
60 60 61 60 60 60 60 58 56 54 54 50 50 50 51 50 51 52 55 54 54 54 53 52 51 51 50 49 48 45 44 44 43 43 42 41 41 41 41 42 42 43 44
58 59 59 59 60 59 59 59 59 55 56 57 52 53 51 50 52 53 53 54 54 53 54 52 50 50 49 48 48 47 43 42 40 41 39 38 41 41 41 40 42 39 42
57 57 59 59 58 58 59 61 60 57 58 57 53 50 51 51 50 50 50 53 54 55 53 52 51 49 48 46 45 45 44 41 40 38 40 35 35 36 39 39 39 39 39
58 57 57 56 58 59 60 60 58 57 58 57 58 56 56 49 50 50 50 51 53 54 54 52 50 48 46 44 44 45 43 42 39 39 39 36 37 34 34 38 38 39 40
57 57 57 58 58 58 59 58 57 58 58 57 59 56 54 52 50 50 50 50 51 52 53 51 48 46 45 44 44 43 42 41 39 37 36 35 35 34 34 33 35 38 39
57 58 57 57 56 53 52 54 57 57 57 57 58 57 52 51 50 48 49 49 49 52 51 50 47 45 44 44 43 41 41 39 38 37 37 36 35 35 34 32 32 33 37
57 56 55 56 56 53 53 54 57 57 57 58 59 58 55 54 54 52 51 50 51 50 50 49 47 46 44 44 43 41 39 39 37 37 36 36 36 37 36 34 32 33 35
57 56 57 57 57 56 55 57 57 58 59 59 58 58 55 57 57 54 54 53 53 52 51 49 47 46 45 44 43 40 39 38 36 36 35 34 35 36 36 35 34 32 33
57 59 56 56 55 56 55 57 58 59 59 58 56 55 56 56 56 54 54 53 52 51 49 47 46 46 43 43 42 39 38 37 36 35 34 34 33 34 35 35 35 34 30
57 57 57 56 56 57 56 56 57 59 59 56 56 57 56 56 55 54 53 53 51 51 48 47 46 44 44 43 41 39 38 37 35 35 34 33 33 33 33 33 33 33 33
56 57 57 56 55 56 55 55 57 57 56 56 56 56 54 55 54 54 54 53 52 50 48 47 46 44 44 42 40 39 38 36 35 34 34 33 33 32 32 32 32 32 32
56 56 56 56 54 55 55 55 56 57 58 57 57 55 54 54 53 53 53 53 51 50 49 47 46 45 44 43 41 40 38 37 35 34 33 33 35 31 32 32 31 31 31
56 56 55 56 56 55 55 56 56 56 57 57 56 54 53 53 53 52 52 52 49 49 49 47 46 45 43 42 41 39 39 37 37 36 33 33 32 31 31 31 31 31 33
57 56 55 55 56 56 56 56 56 57 57 55 56 53 53 54 53 52 52 50 50 48 48 48 46 44 43 43 42 41 38 37 38 36 34 33 33 32 31 32 31 31 30
55 56 56 54 54 55 55 55 55 56 57 55 54 53 53 53 53 51 50 49 50 49 48 46 45 44 43 43 41 40 38 36 37 36 35 34 35 37 34 32 31 30 29
53 55 56 56 55 55 54 55 54 55 56 55 53 53 52 51 51 49 48 49 48 47 46 45 43 42 44 39 39 39 37 37 37 35 34 35 38 37 37 36 34 33 30
52 53 54 55 55 55 55 54 53 53 54 54 53 52 51 50 49 49 48 47 46 45 44 43 42 40 39 39 39 38 38 37 36 33 33 34 36 34 33 34 33 32 32
51 52 52 52 53 54 54 53 53 53 53 51 52 51 50 49 48 47 47 45 45 44 42 41 40 39 39 38 38 37 37 35 34 33 33 32 31 32 32 31 30 29 30
51 50 50 51 51 53 53 53 52 52 51 50 50 50 49 46 46 46 46 45 43 42 40 40 38 38 36 37 37 36 34 35 32 33 33 32 30 33 34 31 29 28 29
50 49 49 50 50 50 52 52 50 51 50 50 49 49 48 46 46 47 45 44 43 41 40 38 39 38 36 36 36 36 34 31 30 31 32 33 31 33 32 29 28 26 28
50 50 49 48 48 50 51 50 49 50 50 49 48 47 46 47 48 46 44 43 41 39 37 37 36 37 36 36 37 36 34 32 30 30 29 32 33 33 33 31 28 28 29
50 50 48 48 49 50 51 48 48 47 47 47 46 46 45 48 47 44 42 41 39 37 35 34 34 35 35 36 36 36 35 33 31 30 31 31 33 33 33 31 31 31 28
49 49 48 49 49 49 50 48 48 47 46 46 44 44 46 45 44 42 40 38 38 35 34 34 33 32 34 35 36 35 34 33 31 32 31 32 33 33 32 31 32 25 26
48 48 49 48 48 49 50 49 47 46 45 43 42 41 42 42 43 42 41 39 37 35 34 33 33 32 31 32 34 33 33 33 31 30 31 28 27 24 25 27 28 26 25
45 45 45 46 47 48 48 48 47 46 44 42 41 41 40 40 40 41 40 39 40 39 35 35 35 31 29 32 33 32 30 29 29 26 24 23 23 22 22 22 23 23 23
44 44 44 44 46 47 47 47 46 45 43 41 40 40 38 38 38 37 34 36 37 37 37 37 36 35 36 35 34 34 33 32 28 24 20 19 21 21 20 21 20 21 20
MSLP
1016.94 1017.84 1018.42 1019.04 1019.68 1020.06 1021.01 1021.72 1022.34 1022.88 1023.56 1024.34 1024.99 1025.56 1025.97 1026.51 1026.72 1026.51 1026.66 1026.90 1027.23 1027.66 1028.11 1028.55 1029.08 1029.36 1029.54 1030.22 1030.60 1031.24 1031.71 1032.28 1032.48 1032.56 1033.23 1033.43 1033.34 1033.30 1033.43 1033.23 1032.98 1032.56 1032.38
1017.02 1017.69 1018.22 1018.72 1019.21 1019.81 1020.58 1021.20 1021.77 1022.46 1023.00 1023.53 1024.08 1024.69 1025.29 1026.19 1026.34 1026.52 1026.81 1026.96 1027.35 1027.70 1027.99 1028.43 1029.08 1029.48 1029.84 1030.34 1030.66 1031.03 1031.99 1032.63 1032.97 1033.09 1033.52 1033.88 1033.97 1033.87 1033.96 1033.73 1033.37 1033.28 1032.90
1016.78 1017.42 1017.93 1018.22 1018.74 1019.20 1019.60 1020.17 1020.98 1021.79 1022.49 1023.01 1023.84 1024.68 1025.35 1026.20 1026.59 1026.75 1027.14 1027.21 1027.33 1027.69 1028.07 1028.48 1028.91 1029.53 1029.90 1030.53 1030.90 1031.10 1031.44 1032.42 1033.17 1033.10 1033.21 1033.98 1034.10 1034.38 1034.44 1034.38 1034.19 1033.90 1033.56
1016.29 1016.85 1017.28 1017.88 1018.23 1018.86 1019.50 1020.18 1020.92 1021.53 1022.18 1022.57 1023.27 1023.94 1024.64 1025.54 1025.91 1026.26 1026.82 1027.23 1027.40 1027.70 1028.18 1028.62 1029.12 1029.66 1030.22 1030.76 1030.98 1031.13 1031.44 1031.90 1032.78 1033.24 1033.29 1033.33 1033.61 1034.26 1034.85 1034.66 1034.58 1034.26 1033.94
1015.65 1016.18 1016.62 1017.18 1017.97 1018.66 1019.11 1019.69 1020.50 1021.24 1021.94 1022.55 1022.96 1023.50 1024.51 1024.90 1025.39 1026.04 1026.74 1027.27 1027.53 1027.78 1028.20 1028.71 1029.30 1029.85 1030.39 1030.88 1031.16 1031.52 1031.69 1031.96 1032.59 1032.99 1033.48 1033.73 1033.92 1034.14 1034.41 1034.77 1034.77 1034.61 1034.47
1014.89 1015.56 1016.11 1016.82 1017.62 1018.29 1019.07 1019.58 1020.09 1020.70 1021.30 1021.80 1022.36 1022.88 1023.80 1024.48 1025.18 1025.77 1026.59 1027.16 1027.56 1027.97 1028.41 1028.82 1029.36 1029.98 1030.50 1030.89 1031.34 1031.73 1032.01 1032.42 1032.62 1032.94 1033.32 1033.71 1034.02 1034.30 1034.45 1034.74 1034.86 1034.95 1034.67
1014.12 1014.83 1015.60 1016.30 1017.14 1017.85 1018.52 1019.14 1019.64 1020.13 1020.70 1021.26 1021.69 1022.20 1022.96 1023.75 1024.43 1025.13 1025.90 1026.74 1027.32 1027.93 1028.29 1028.71 1029.26 1029.87 1030.51 1031.10 1031.33 1031.86 1032.32 1032.61 1032.86 1033.16 1033.60 1033.81 1033.94 1034.20 1034.50 1034.64 1034.98 1035.04 1034.85
1013.34 1013.93 1014.59 1015.30 1016.10 1016.94 1017.85 1018.36 1018.80 1019.40 1019.90 1020.47 1021.16 1021.90 1022.73 1023.37 1023.84 1024.50 1025.32 1025.90 1026.40 1027.07 1027.91 1028.57 1029.18 1029.80 1030.46 1031.04 1031.57 1031.84 1032.46 1032.90 1033.11 1033.41 1033.72 1034.04 1034.15 1034.22 1034.34 1034.45 1034.67 1035.02 1034.94
1012.72 1013.12 1013.86 1014.51 1015.30 1016.15 1016.78 1017.24 1017.95 1018.66 1019.22 1019.70 1020.64 1021.40 1022.04 1022.76 1023.37 1024.17 1024.82 1025.36 1025.89 1026.65 1027.56 1028.31 1029.12 1029.81 1030.24 1030.85 1031.51 1032.08 1032.36 1032.84 1033.28 1033.60 1033.90 1034.14 1034.38 1034.39 1034.44 1034.40 1034.48 1034.78 1034.98
1012.51 1012.85 1013.16 1013.82 1014.59 1015.31 1016.06 1016.69 1017.20 1017.64 1018.16 1019.10 1019.89 1020.73 1021.39 1022.12 1022.84 1023.56 1024.32 1024.91 1025.70 1026.34 1027.15 1027.96 1028.75 1029.42 1030.23 1030.94 1031.32 1031.98 1032.49 1032.72 1033.40 1033.69 1033.97 1034.27 1034.56 1034.63 1034.61 1034.62 1034.74 1034.86 1035.01
1011.89 1012.17 1012.78 1013.43 1014.16 1014.87 1015.36 1015.82 1016.48 1016.93 1017.68 1018.35 1018.90 1019.84 1020.60 1021.48 1022.23 1022.93 1023.57 1024.17 1025.01 1026.02 1026.91 1027.69 1028.45 1029.40 1029.95 1030.65 1031.36 1032.06 1032.32 1032.88 1033.22 1033.77 1034.03 1034.41 1034.70 1034.82 1034.90 1034.93 1035.00 1035.20 1035.24
1011.70 1012.08 1012.74 1013.07 1013.63 1014.21 1014.88 1015.37 1015.94 1016.32 1016.64 1017.46 1018.24 1019.02 1019.83 1020.65 1021.47 1022.19 1022.96 1023.66 1024.60 1025.24 1026.09 1027.23 1028.08 1028.86 1029.53 1030.41 1030.99 1031.72 1032.09 1032.90 1033.15 1033.35 1033.95 1034.41 1034.63 1034.98 1035.20 1035.19 1035.26 1035.39 1035.39
1011.50 1011.57 1012.24 1012.48 1012.89 1013.54 1014.08 1014.55 1015.09 1015.53 1016.10 1016.75 1017.52 1018.52 1019.20 1019.86 1020.65 1021.47 1022.30 1023.16 1024.10 1024.86 1025.58 1026.49 1027.28 1028.19 1029.11 1029.96 1030.81 1031.32 1031.78 1032.40 1032.87 1033.01 1033.63 1034.18 1034.56 1034.91 1035.00 1035.20 1035.43 1035.48 1035.42
1011.42 1011.51 1011.79 1011.86 1012.15 1012.68 1013.19 1013.70 1014.35 1014.95 1015.61 1016.31 1017.09 1017.79 1018.63 1019.41 1020.21 1020.74 1021.50 1022.47 1023.26 1024.19 1025.32 1025.87 1026.65 1027.66 1028.62 1029.45 1030.42 1030.97 1031.69 1032.22 1032.73 1032.78 1033.32 1033.87 1034.20 1034.37 1034.60 1035.00 1035.32 1035.41 1035.38
1011.75 1011.65 1011.68 1011.84 1012.09 1012.46 1012.91 1013.35 1013.88 1014.46 1015.05 1015.86 1016.46 1016.99 1017.85 1018.69 1019.61 1020.31 1021.03 1021.85 1022.62 1023.42 1024.47 1025.46 1026.45 1027.36 1028.17 1029.01 1029.84 1030.55 1031.26 1031.74 1032.45 1032.62 1033.04 1033.43 1033.66 1033.74 1034.22 1034.62 1035.06 1035.22 1035.18
1012.52 1012.13 1011.80 1011.62 1011.53 1011.69 1012.18 1012.66 1013.26 1013.93 1014.69 1015.50 1016.21 1016.87 1017.63 1018.44 1019.23 1020.02 1020.80 1021.60 1022.40 1023.22 1024.12 1025.06 1025.90 1026.96 1027.73 1028.84 1029.67 1030.29 1030.85 1031.32 1031.94 1032.26 1032.73 1033.00 1033.03 1033.43 1033.85 1034.29 1034.66 1034.87 1034.86
1012.55 1012.41 1012.23 1011.75 1011.34 1011.35 1011.68 1012.26 1012.92 1013.62 1014.36 1015.09 1015.76 1016.51 1017.28 1018.14 1018.97 1019.82 1020.56 1021.21 1021.92 1022.84 1023.80 1024.74 1025.56 1026.52 1027.42 1028.35 1029.09 1029.90 1030.33 1031.00 1031.35 1031.82 1032.32 1032.66 1032.97 1033.43 1033.98 1034.41 1034.71 1034.82 1034.69
1012.58 1012.36 1011.85 1011.30 1010.95 1010.84 1011.18 1011.74 1012.48 1013.22 1013.91 1014.68 1015.44 1016.22 1016.97 1017.82 1018.64 1019.40 1020.10 1020.91 1021.58 1022.32 1023.23 1024.41 1025.39 1026.28 1027.23 1027.98 1028.84 1029.68 1029.97 1030.84 1031.12 1031.51 1031.94 1032.39 1033.09 1033.51 1033.96 1034.49 1034.75 1034.88 1034.83
1012.56 1012.28 1011.86 1011.12 1010.53 1010.49 1010.84 1011.46 1012.27 1012.91 1013.64 1014.35 1014.99 1015.62 1016.25 1017.22 1018.07 1018.77 1019.47 1020.30 1021.24 1022.18 1023.04 1024.02 1025.02 1025.96 1027.07 1027.79 1028.55 1029.26 1030.10 1030.81 1031.11 1031.39 1031.84 1032.33 1032.92 1033.23 1033.66 1034.16 1034.47 1034.72 1034.80
1012.60 1012.21 1011.72 1011.20 1010.78 1010.75 1010.92 1011.44 1012.13 1012.65 1013.27 1013.90 1014.48 1015.20 1015.98 1016.73 1017.37 1018.08 1019.03 1019.97 1020.95 1021.98 1022.93 1023.92 1024.77 1025.62 1026.62 1027.60 1028.16 1028.86 1029.75 1030.62 1031.16 1031.64 1031.84 1032.21 1032.66 1033.04 1033.56 1033.98 1034.28 1034.46 1034.58
1012.81 1012.44 1012.10 1011.87 1011.72 1011.58 1011.64 1012.12 1012.62 1012.89 1013.19 1013.86 1014.48 1015.16 1015.70 1016.53 1017.23 1018.23 1019.01 1019.85 1020.91 1021.99 1023.06 1024.02 1024.85 1025.57 1026.22 1027.14 1027.74 1028.50 1029.12 1029.84 1030.68 1031.19 1031.73 1032.04 1032.33 1032.70 1033.13 1033.62 1034.08 1034.18 1034.40
1012.83 1012.65 1012.65 1012.54 1012.27 1012.18 1012.36 1012.84 1013.18 1013.48 1013.78 1014.31 1014.84 1015.44 1015.89 1016.40 1017.40 1017.86 1019.12 1020.17 1020.84 1021.93 1023.09 1023.94 1024.85 1025.60 1026.26 1026.88 1027.44 1028.10 1028.66 1029.38 1030.01 1030.70 1031.24 1031.67 1031.94 1032.32 1032.70 1033.12 1033.51 1033.67 1034.15
1013.79 1013.45 1013.24 1013.15 1012.99 1013.01 1013.14 1013.33 1013.40 1013.67 1014.08 1014.59 1015.34 1015.65 1016.40 1016.68 1016.97 1018.02 1018.79 1019.93 1020.96 1021.62 1022.61 1023.69 1024.52 1025.23 1025.98 1026.58 1027.16 1027.76 1028.39 1029.03 1029.80 1030.28 1030.81 1031.35 1031.67 1032.01 1032.44 1032.81 1033.02 1033.66 1034.00
1014.17 1013.97 1013.74 1013.56 1013.46 1013.33 1013.35 1013.44 1013.60 1014.06 1014.42 1014.89 1015.32 1015.93 1016.34 1016.82 1017.34 1018.11 1018.76 1019.48 1020.41 1021.19 1021.90 1022.81 1023.91 1024.64 1025.53 1026.16 1026.78 1027.54 1028.20 1028.87 1029.60 1030.19 1030.74 1031.39 1031.92 1032.38 1032.67 1032.84 1032.96 1033.45 1033.81
1014.67 1014.57 1014.46 1014.17 1013.82 1013.48 1013.32 1013.40 1013.58 1013.93 1014.38 1014.77 1015.23 1015.64 1016.20 1016.68 1016.84 1017.59 1017.82 1018.39 1018.92 1019.29 1020.17 1021.04 1022.00 1023.12 1024.24 1024.60 1025.45 1026.48 1027.50 1028.42 1029.22 1030.30 1031.09 1031.73 1032.06 1032.42 1032.74 1032.97 1033.16 1033.50 1033.74
1015.12 1014.99 1014.87 1014.58 1014.23 1013.84 1013.47 1013.19 1013.33 1013.66 1014.04 1014.56 1015.02 1015.30 1015.86 1016.34 1016.66 1017.37 1018.13 1018.34 1018.28 1018.64 1019.14 1019.93 1020.82 1021.84 1022.36 1023.74 1024.97 1025.75 1026.67 1027.74 1028.95 1030.03 1030.78 1031.26 1031.58 1031.98 1032.42 1032.72 1033.12 1033.39 1033.64
Wind_Speed
6 7 9 11 13 13 11 11 11 9 7 3 4 3 4 3 2 3 6 7 6 7 6 5 5 4 5 5 5 4 6 4 3 3 4 4 6 7 5 4 4 6 5
7 8 10 11 13 14 12 12 13 10 8 6 4 4 4 2 2 3 4 6 7 6 6 6 5 5 5 5 4 4 3 3 3 2 2 1 2 4 5 5 5 6 4
9 9 11 14 12 15 17 16 14 13 10 9 6 4 5 4 3 2 2 3 6 6 6 6 6 5 4 4 3 4 5 4 3 4 3 2 3 1 2 4 4 5 4
6 7 11 11 14 13 11 12 11 12 9 11 10 10 8 5 4 4 4 4 6 6 6 6 6 6 4 5 3 3 3 4 4 1 3 4 3 3 1 1 2 3 5
8 10 12 13 11 10 12 11 10 12 10 10 10 9 6 4 4 4 7 5 5 5 6 7 7 6 4 4 6 4 5 3 3 3 2 2 3 2 2 2 1 1 2
9 8 9 9 10 8 8 10 13 13 12 13 12 13 10 9 6 6 6 4 4 4 5 7 6 6 6 6 5 5 6 4 4 3 3 2 2 0 2 2 1 1 1
9 9 11 11 12 13 13 12 14 14 13 15 14 13 13 12 11 10 8 8 6 4 7 7 7 6 6 5 6 6 5 4 4 4 3 2 2 2 2 2 1 1 1
8 9 11 12 14 16 15 16 16 15 15 14 14 11 10 9 8 10 9 8 8 8 9 6 7 7 7 6 5 5 4 4 4 6 4 3 2 2 1 2 2 0 1
9 11 8 12 13 15 18 18 17 15 15 14 11 11 11 11 9 10 9 8 7 7 9 9 9 8 8 8 7 4 5 5 4 5 5 3 2 3 2 2 2 2 1
7 8 9 11 10 13 14 14 15 17 14 12 12 10 12 11 10 10 11 11 9 10 11 10 9 10 8 7 7 5 5 6 3 3 5 3 2 3 2 3 3 2 1
10 8 6 7 9 11 14 15 14 15 13 13 13 12 11 11 11 12 12 12 11 11 11 11 11 10 9 8 7 5 7 6 6 5 5 5 3 2 3 3 2 2 1
8 6 5 7 10 12 12 13 13 14 15 14 13 12 12 11 13 12 12 12 12 12 14 12 11 10 10 9 9 9 7 7 6 6 6 5 4 4 3 2 3 2 1
9 8 7 9 9 10 11 13 13 14 12 13 13 12 12 14 14 13 13 12 12 13 12 13 13 12 11 10 8 8 9 7 6 8 7 6 5 4 3 3 3 1 0
8 7 6 8 8 9 11 12 12 12 11 12 12 13 13 13 11 13 14 13 13 14 13 13 12 12 12 11 9 9 8 6 6 6 6 6 6 6 6 4 3 2 0
8 7 7 4 4 6 6 8 9 10 12 12 12 12 12 12 12 13 13 13 14 13 13 13 11 12 11 9 10 10 9 8 6 5 5 6 7 10 7 4 3 2 1
5 8 8 8 8 7 7 8 9 10 11 11 11 9 11 12 12 12 12 13 12 12 13 13 13 13 8 16 13 11 8 8 8 7 5 5 9 9 10 7 5 2 1
7 7 7 8 8 8 8 9 8 8 11 10 9 11 12 12 12 11 13 13 14 14 13 13 14 13 11 19 17 14 7 8 7 6 6 5 4 8 6 6 3 1 2
6 7 7 8 7 6 7 8 10 10 10 9 10 10 11 12 12 13 13 12 12 14 13 12 13 12 10 18 17 15 8 6 6 7 7 7 7 6 7 5 3 2 0
7 7 7 10 7 7 8 9 9 9 9 10 11 12 13 13 13 14 14 12 12 11 12 13 14 13 12 18 17 13 7 7 6 5 6 8 8 11 10 5 3 2 1
6 7 8 6 3 3 7 9 9 9 10 10 11 11 12 13 14 13 13 11 10 11 10 11 12 15 13 18 19 13 7 7 5 5 6 13 9 11 9 5 4 3 2
8 7 6 6 5 4 4 6 6 7 5 7 9 10 10 11 10 10 9 11 11 11 11 11 10 11 13 14 19 18 9 8 7 6 6 5 13 11 10 8 4 3 3
9 9 7 6 4 4 5 4 4 4 6 7 7 8 9 9 8 12 10 11 12 12 11 11 9 7 9 14 17 19 13 13 8 8 6 7 13 11 10 7 7 6 5
6 5 6 6 4 4 3 0 1 5 6 6 5 6 7 7 11 12 12 10 11 10 10 9 9 8 7 8 17 18 15 15 6 6 10 13 12 10 8 10 8 6 3
7 6 7 7 6 3 1 3 6 6 6 6 7 6 8 8 9 7 8 9 9 9 10 10 9 9 8 8 8 8 9 13 7 9 9 6 5 4 4 3 4 4 4
6 6 6 6 8 7 4 4 6 7 6 6 7 8 6 8 9 8 10 11 12 14 14 13 12 13 12 12 14 14 9 8 8 8 4 3 3 3 3 2 4 4 4
7 8 8 8 8 7 7 5 6 7 7 6 6 7 7 7 7 7 3 3 7 14 15 16 14 11 10 22 22 22 20 20 19 4 3 3 4 5 5 4 4 3 4
Wind_Direction
186 139 157 156 162 173 170 168 164 182 157 135 135 136 155 151 174 151 151 149 141 139 129 118 114 110 104 118 109 89 82 50 24 92 42 39 40 46 29 12 24 28 21
166 155 162 170 176 171 172 177 181 175 176 167 153 145 143 156 145 135 139 150 137 139 133 133 127 120 109 98 99 127 116 82 15 117 100 129 351 32 24 16 25 20 12
178 165 175 185 177 177 180 186 179 174 174 158 125 89 81 71 82 115 108 160 139 145 136 133 128 121 112 113 105 118 127 137 45 46 143 118 208 129 353 13 18 22 30
178 169 180 187 188 188 178 175 168 173 168 165 164 166 173 157 181 160 145 148 149 145 136 127 119 115 109 105 103 102 110 120 144 93 51 63 138 160 204 335 3 16 43
187 190 188 190 184 177 180 169 162 166 168 174 178 165 172 147 144 126 133 136 138 144 133 133 128 120 107 110 111 95 89 91 125 137 141 77 69 76 124 172 328 9 15
198 189 180 168 171 162 159 164 169 176 168 176 180 182 168 161 146 135 146 153 136 128 133 130 125 121 129 131 117 105 95 100 96 97 97 127 134 109 111 110 227 259 290
197 183 177 181 171 176 172 170 181 186 179 187 190 187 176 171 169 163 159 154 150 154 164 149 141 134 124 120 121 112 112 120 113 116 98 91 94 126 129 120 155 247 286
201 195 187 184 181 180 179 183 189 190 188 188 190 183 175 179 180 167 162 170 169 166 156 137 133 133 125 125 122 117 113 111 111 108 100 106 90 99 147 148 144 189 284
203 215 187 183 179 181 186 189 191 193 193 194 175 179 176 179 170 166 167 170 153 151 149 144 142 148 146 139 135 134 128 121 115 115 108 101 69 81 81 93 114 148 292
227 213 202 188 182 183 184 191 191 194 190 177 177 185 180 177 165 158 167 167 159 154 154 149 151 147 145 141 140 139 133 123 127 124 115 98 79 78 74 80 75 64 131
231 218 201 174 176 180 185 193 191 189 187 182 179 182 174 171 164 168 174 170 159 158 153 156 152 159 150 146 140 146 139 138 137 132 130 123 130 97 66 65 73 72 80
254 269 188 176 179 188 186 192 194 196 194 184 183 179 170 165 168 173 170 164 163 163 162 160 160 158 154 158 154 158 147 151 156 146 142 142 138 117 118 106 104 93 54
253 236 198 204 193 186 190 194 196 198 191 182 180 182 176 174 177 168 161 166 160 164 163 162 164 162 161 154 160 158 158 159 170 157 157 162 151 147 149 145 134 146 352
249 244 245 221 202 188 191 195 197 192 184 181 186 182 185 182 178 166 167 167 165 161 171 171 164 160 156 157 160 153 152 154 180 164 166 168 175 167 162 158 164 176 310
289 263 271 286 249 201 181 187 184 183 181 180 184 185 174 170 170 169 169 166 169 170 167 158 156 154 156 157 157 158 165 160 176 170 169 178 186 178 163 152 176 172 301
347 307 279 262 249 209 186 179 174 177 176 182 187 167 162 164 170 167 163 162 162 161 158 161 155 152 156 145 153 160 172 167 177 176 187 190 187 166 157 144 139 161 257
312 300 279 261 244 214 187 186 158 152 175 180 167 164 162 167 168 165 161 164 165 157 161 156 153 154 147 156 160 162 167 177 175 168 163 158 146 136 129 128 115 10 31
304 308 298 288 256 208 172 144 152 161 169 164 158 158 161 161 162 163 168 165 162 164 159 156 152 145 154 158 163 165 154 168 169 169 167 148 145 148 147 151 147 128 104
308 299 294 288 270 194 157 145 150 155 157 165 165 168 164 161 164 171 170 164 159 157 159 157 152 152 154 162 164 155 151 170 170 165 155 150 149 162 159 152 143 133 119
323 326 329 317 298 152 144 147 157 162 179 175 172 165 165 169 175 173 167 162 157 153 151 151 157 155 156 171 166 155 155 156 155 145 154 158 153 158 159 151 154 167 171
337 343 9 18 13 47 105 126 147 193 152 140 150 160 165 173 168 155 156 154 151 145 148 149 151 156 162 171 169 166 164 162 156 157 158 160 164 169 173 163 175 187 169
1 5 14 11 27 78 107 138 180 121 119 133 149 162 158 156 156 149 148 151 148 147 152 149 151 161 164 172 175 175 169 163 159 169 164 164 174 178 184 175 185 193 147
4 357 9 4 22 19 13 260 241 140 136 142 151 142 155 152 154 153 153 150 159 157 158 164 167 167 167 171 178 177 170 168 153 159 165 166 173 183 173 174 179 139 145
9 354 7 2 342 334 261 205 169 157 151 157 149 152 160 154 157 156 162 158 167 165 165 169 176 169 167 172 173 176 167 168 147 151 160 161 152 144 157 156 163 155 154
13 16 8 349 335 341 300 219 184 164 172 165 163 166 163 175 162 179 176 179 186 180 174 184 177 168 181 191 173 168 164 161 151 129 114 138 150 155 153 154 156 150 147
10 12 5 360 345 337 325 284 193 180 171 176 180 177 172 176 170 170 155 352 188 187 187 167 177 188 172 168 175 174 168 159 147 124 149 170 172 177 176 173 166 165 164